Weather History for Christmas Island, IS

Change the Weather History Date:

Sunday, December 15, 2013

  Actual Average Record
Temperature  
Mean Temperature 76 °F -  
Max Temperature 79 °F 79 °F 82 °F (2003)
Min Temperature 72 °F 70 °F 69 °F (2000)
Cooling Degree Days 10    
Growing Degree Days 26 (Base 50)    
Moisture  
Dew Point 74 °F    
Average Humidity 94    
Maximum Humidity 100    
Minimum Humidity 78    
Precipitation  
Precipitation 0.55 in - - ()
Sea Level Pressure  
Sea Level Pressure 29.81 in    
Wind  
Wind Speed 6 mph ()    
Max Wind Speed 10 mph    
Max Gust Speed -    
Visibility 6.2 miles    
Events Rain    
Averages and records for this station are not official NWS values.
T = Trace of Precipitation, MM = Missing Value Source: Averaged Metar Reports

Daily Weather History Graph

Daily Weather History Graph

Search for Another Location

Airport:

Trip Planner

Search our weather history database for the weather conditions in past years. The results will help you decide how hot, cold, wet, or windy it might be!

Date:

Astronomy

Dec. 15, 2013 Rise Set
Actual Time 5:30 AM CXT 6:14 PM CXT
Civil Twilight 5:07 AM CXT 6:37 PM CXT
Nautical Twilight 4:40 AM CXT 7:04 PM CXT
Astronomical Twilight 4:12 AM CXT 7:32 PM CXT
Moon 4:34 PM CXT (12/15) 3:41 AM CXT (12/15)
Length of Visible Light 13h 30m
Length of Day
12h 44m
Waxing Gibbous, 96% of the Moon is Illuminated
Dec 15
Waxing Gibbous
Dec 17
Full
Dec 25
Last Quarter
Jan 1
New
Jan 8
First Quarter

Hourly Weather History & Observations

Time (CXT) Temp. Dew Point Humidity Pressure Visibility Wind Dir Wind Speed Gust Speed Precip Events Conditions
12:00 AM 74 °F 73 °F 97% 29.80 in - NNE 8.1 mph - -   Overcast
12:00 AM 73.4 °F 73.4 °F 100% 29.83 in - NNE 8.1 mph - N/A   Overcast
12:10 AM 75.2 °F 73.4 °F 94% 29.83 in - NNE 8.1 mph - N/A   Overcast
12:31 AM 75.2 °F 73.4 °F 94% 29.83 in - NNE 8.1 mph - N/A   Overcast
1:00 AM 74 °F 73 °F 96% 29.78 in - NNE 8.1 mph - -  
1:00 AM 73.4 °F 73.4 °F 100% 29.83 in - NNE 8.1 mph - N/A   Overcast
2:00 AM 73.4 °F 73.4 °F 100% 29.80 in - NE 8.1 mph - N/A   Overcast
2:02 AM 73.4 °F 73.4 °F 100% 29.80 in - NE 8.1 mph - N/A   Overcast
2:21 AM 73.4 °F 73.4 °F 100% 29.80 in - NNE 6.9 mph - N/A   Overcast
2:52 AM 75.2 °F 73.4 °F 94% 29.80 in - NNE 5.8 mph - N/A   Mostly Cloudy
3:00 AM 74 °F 74 °F 99% 29.75 in - NNE 5.8 mph - -   Overcast
3:00 AM 75.2 °F 73.4 °F 94% 29.80 in - NNE 5.8 mph - N/A   Mostly Cloudy
3:04 AM 75.2 °F 73.4 °F 94% 29.80 in - NNE 5.8 mph - N/A   Mostly Cloudy
3:21 AM 75.2 °F 73.4 °F 94% 29.80 in - NE 5.8 mph - N/A   Mostly Cloudy
4:00 AM 74 °F 73 °F 95% 29.75 in - NNE 4.6 mph - -  
4:00 AM 73.4 °F 73.4 °F 100% 29.77 in - NNE 4.6 mph - N/A   Scattered Clouds
5:00 AM 73.4 °F 73.4 °F 100% 29.80 in - NNE 2.3 mph - N/A   Scattered Clouds
5:34 AM 73.4 °F 73.4 °F 100% 29.80 in - NNE 3.5 mph - N/A   Mostly Cloudy
6:00 AM 74 °F 73 °F 96% 29.78 in - Calm Calm - -   Overcast
6:00 AM 73.4 °F 73.4 °F 100% 29.80 in - Calm Calm - N/A   Mostly Cloudy
6:26 AM 73.4 °F 73.4 °F 100% 29.83 in - Calm Calm - N/A   Mostly Cloudy
7:00 AM 74 °F 74 °F 99% 29.80 in - Calm Calm - -  
7:00 AM 75.2 °F 73.4 °F 94% 29.83 in - Calm Calm - N/A   Scattered Clouds
7:15 AM 75.2 °F 73.4 °F 94% 29.83 in - Calm Calm - N/A   Mostly Cloudy
8:00 AM 77.0 °F 75.2 °F 94% 29.83 in - ESE 5.8 mph - N/A   Overcast
8:05 AM 77.0 °F 75.2 °F 94% 29.83 in - ESE 5.8 mph - N/A   Overcast
8:07 AM 77.0 °F 75.2 °F 94% 29.86 in - ESE 5.8 mph - N/A   Overcast
9:00 AM 76 °F 75 °F 97% 29.83 in - SE 6.9 mph - -   Overcast
9:00 AM 75.2 °F 75.2 °F 100% 29.86 in - SE 6.9 mph - N/A   Overcast
10:00 AM 76 °F 75 °F 96% 29.83 in - SE 10.4 mph - -  
10:00 AM 75.2 °F 75.2 °F 100% 29.86 in - SE 10.4 mph - N/A   Overcast
11:00 AM 73.4 °F 73.4 °F 100% 29.86 in - ESE 6.9 mph - N/A   Overcast
11:52 AM 75.2 °F 75.2 °F 100% 29.83 in - East 5.8 mph - N/A   Mostly Cloudy
12:00 PM 76 °F 75 °F 97% 29.80 in - East 5.8 mph - -   Overcast
12:00 PM 77.0 °F 75.2 °F 94% 29.83 in 6.2 mi East 5.8 mph - N/A Rain Light Rain Showers
12:07 PM 77.0 °F 75.2 °F 94% 29.83 in 6.2 mi East 5.8 mph - N/A Rain Light Rain Showers
1:00 PM 77 °F 75 °F 91% 29.77 in - ESE 6.9 mph - -  
1:00 PM 77.0 °F 75.2 °F 94% 29.80 in 6.2 mi ESE 6.9 mph - N/A Rain Light Rain Showers
2:00 PM 78.8 °F 73.4 °F 83% 29.77 in 6.2 mi East 10.4 mph - N/A   Mostly Cloudy
2:25 PM 78.8 °F 73.4 °F 83% 29.80 in 6.2 mi ESE 8.1 mph - N/A   Scattered Clouds
3:00 PM 78 °F 74 °F 82% 29.75 in - ESE 6.9 mph - -   Overcast
3:00 PM 77.0 °F 73.4 °F 89% 29.77 in 6.2 mi ESE 6.9 mph - N/A   Overcast
3:12 PM 78.8 °F 73.4 °F 83% 29.77 in 6.2 mi ESE 5.8 mph - N/A   Overcast
4:00 PM 79 °F 73 °F 78% 29.74 in - East 5.8 mph - -  
4:00 PM 78.8 °F 73.4 °F 83% 29.77 in 6.2 mi East 5.8 mph - N/A   Scattered Clouds
5:00 PM 77.0 °F 73.4 °F 89% 29.77 in 6.2 mi North 8.1 mph - N/A   Mostly Cloudy
5:07 PM 77.0 °F 73.4 °F 89% 29.77 in 6.2 mi North 6.9 mph - N/A   Mostly Cloudy
5:30 PM 75.2 °F 71.6 °F 89% 29.77 in 6.2 mi North 5.8 mph - N/A   Scattered Clouds
6:00 PM 76 °F 72 °F 85% 29.75 in - ENE 5.8 mph - -  
6:00 PM 75.2 °F 71.6 °F 89% 29.77 in 6.2 mi ENE 5.8 mph - N/A   Unknown
7:00 PM 76 °F 73 °F 89% 29.78 in - NNE 4.6 mph - -  
7:00 PM 75.2 °F 73.4 °F 94% 29.83 in - NNE 4.6 mph - N/A   Mostly Cloudy
8:00 PM 75.2 °F 73.4 °F 94% 29.86 in - NE 5.8 mph - N/A   Overcast
9:00 PM 76 °F 74 °F 92% 29.83 in - NNE 4.6 mph - -   Overcast
9:00 PM 77.0 °F 73.4 °F 89% 29.86 in - NNE 4.6 mph - N/A   Overcast
10:00 PM 77 °F 75 °F 91% 29.85 in - NNE 4.6 mph - -  
10:04 PM 77.0 °F 75.2 °F 94% 29.89 in - NNE 4.6 mph - N/A   Overcast
10:36 PM 77.0 °F 75.2 °F 94% 29.86 in - NNE 4.6 mph - N/A   Overcast
11:00 PM 77.0 °F 75.2 °F 94% 29.86 in - NNE 4.6 mph - N/A   Overcast